Location: Star Camp Observatory
(34.2910°N, 116.3827°W)
Time: 21:18:30
(UTC-08:00)

Envisat - Pass Details

Date: 20 November 2019
Orbit: 764 x 766 km, 98.1° (Epoch: 10 December)

Event Time Altitude Azimuth Distance (km) Brightness Sun altitude
Rises 05:46:07 0° 25° (NNE) 3,232 6.3 -8.0°
Reaches altitude 10° 05:48:44 10° 37° (NE) 2,302 5.7 -7.5°
Maximum altitude 05:53:04 28° 96° (E) 1,394 5.4 -6.6°
Drops below altitude 10° 05:57:23 10° 155° (SSE) 2,289 6.2 -5.8°
Sets 05:59:58 0° 167° (SSE) 3,211 6.7 -5.3°
